Weather History for South Haven, MI

Change the Weather History Date:

Saturday, February 2, 2013

  Actual Average (KBIV) Record (KBIV)
Temperature  
Mean Temperature 16 °F 26 °F  
Max Temperature 24 °F 33 °F 50 °F (1968)
Min Temperature 9 °F 20 °F -7 °F (1962)
Degree Days  
Heating Degree Days 48 39  
Month to date heating degree days 78  
Since 1 July heating degree days 3552  
Cooling Degree Days 0 0  
Month to date cooling degree days 0  
Year to date cooling degree days 0  
Moisture  
Dew Point 13 °F    
Average Humidity 82    
Maximum Humidity 95    
Minimum Humidity 69    
Precipitation  
Precipitation 0.00 in 0.04 in 0.53 in (1974)
Month to date precipitation 0.09  
Year to date precipitation 2.18  
Sea Level Pressure  
Sea Level Pressure 30.03 in    
Wind  
Wind Speed 9 mph (ENE)    
Max Wind Speed 15 mph    
Max Gust Speed 22 mph    
Visibility 4 miles    
Events Snow    
T = Trace of Precipitation, MM = Missing Value Source: NWS Daily Summary

Daily Weather History Graph

Daily Weather History Graph

Search for Another Location

Airport:

Trip Planner

Search our weather history database for the weather conditions in past years. The results will help you decide how hot, cold, wet, or windy it might be!

Date:

Astronomy

Feb. 02, 2013 Rise Set
Actual Time 7:57 AM EST 6:00 PM EST
Civil Twilight 7:27 AM EST 6:30 PM EST
Nautical Twilight 6:54 AM EST 7:04 PM EST
Astronomical Twilight 6:21 AM EST 7:36 PM EST
Moon 12:14 AM EST (2/2) 10:58 AM EST (2/2)
Length of Visible Light 11h 02m
Length of Day
10h 03m
Waning Gibbous, 60% of the Moon is Illuminated
Feb 2
Waning Gibbous
Feb 3
Last Quarter
Feb 10
New
Feb 17
First Quarter
Feb 25
Full

Hourly Weather History & Observations

Time (EST) Temp. Windchill Dew Point Humidity Pressure Visibility Wind Dir Wind Speed Gust Speed Precip Events Conditions
12:15 AM 18.9 °F 5.9 °F 10.9 °F 71% 30.16 in 4.0 mi WSW 12.7 mph 21.9 mph N/A Snow Light Snow
12:35 AM 18.9 °F 5.3 °F 13.3 °F 79% 30.15 in 3.0 mi WSW 13.8 mph 21.9 mph N/A Snow Light Snow
12:55 AM 18.9 °F 4.8 °F 14.0 °F 81% 30.14 in 2.5 mi WSW 15.0 mph 20.7 mph N/A Snow Light Snow
1:15 AM 18.9 °F 5.3 °F 15.1 °F 85% 30.13 in 1.5 mi West 13.8 mph 18.4 mph N/A Snow Light Snow
1:35 AM 19.2 °F 6.4 °F 15.3 °F 85% 30.13 in 1.8 mi WSW 12.7 mph 19.6 mph N/A Snow Light Snow
1:54 AM 19.4 °F 7.9 °F 15.8 °F 86% 30.13 in 1.8 mi WSW 10.4 mph 19.6 mph N/A Snow Light Snow
2:15 AM 19.9 °F 7.3 °F 17.2 °F 89% 30.12 in 1.2 mi SW 12.7 mph 16.1 mph N/A Snow Snow
2:35 AM 16.3 °F 9.2 °F 13.5 °F 88% 30.12 in 1.5 mi South 4.6 mph - N/A Snow Light Snow
2:54 AM 15.8 °F 5.1 °F 13.3 °F 90% 30.12 in 1.5 mi South 8.1 mph - N/A Snow Light Snow
3:15 AM 16.0 °F 6.3 °F 13.6 °F 90% 30.10 in 1.8 mi South 6.9 mph - N/A Snow Light Snow
3:35 AM 16.2 °F 4.7 °F 13.6 °F 90% 30.09 in 1.5 mi South 9.2 mph - N/A Snow Light Snow
3:55 AM 16.3 °F 4.9 °F 13.8 °F 90% 30.08 in 1.2 mi South 9.2 mph - N/A Snow Light Snow
4:15 AM 16.7 °F 5.3 °F 14.5 °F 91% 30.07 in 1.0 mi SSW 9.2 mph - N/A Snow Snow
4:34 AM 16.7 °F 6.2 °F 14.5 °F 91% 30.06 in 1.0 mi SSW 8.1 mph - N/A Snow Snow
4:55 AM 17.1 °F 5.0 °F 14.5 °F 90% 30.05 in 1.0 mi SSW 10.4 mph - N/A Snow Snow
5:15 AM 17.4 °F 4.1 °F 14.7 °F 89% 30.03 in 1.0 mi SSW 12.7 mph 18.4 mph N/A Snow Snow
5:34 AM 17.4 °F 4.1 °F 14.9 °F 90% 30.03 in 0.8 mi South 12.7 mph - N/A Snow Snow
5:55 AM 17.6 °F 5.0 °F 15.4 °F 91% 30.02 in 1.0 mi South 11.5 mph - N/A Snow Snow
6:15 AM 17.6 °F 5.7 °F 15.4 °F 91% 30.01 in 1.0 mi South 10.4 mph 16.1 mph N/A Snow Snow
6:35 AM 18.0 °F 8.7 °F 15.8 °F 91% 30.01 in 1.0 mi SSW 6.9 mph - N/A Snow Snow
6:55 AM 18.0 °F 7.7 °F 15.8 °F 91% 30.00 in 0.8 mi South 8.1 mph - N/A Snow Snow
7:14 AM 18.1 °F 7.1 °F 15.8 °F 91% 30.00 in 1.5 mi South 9.2 mph - N/A Snow Light Snow
7:35 AM 18.5 °F 10.4 °F 16.7 °F 93% 29.99 in 1.0 mi South 5.8 mph - N/A Snow Snow
7:55 AM 19.0 °F 13.9 °F 17.2 °F 93% 29.99 in 1.2 mi SSW 3.5 mph - N/A Snow Light Snow
8:14 AM 19.4 °F - 17.6 °F 93% 29.99 in 0.5 mi Calm Calm - N/A Snow Snow
8:35 AM 22.1 °F 13.7 °F 20.8 °F 95% 29.99 in 0.5 mi West 6.9 mph - N/A Snow Snow
8:55 AM 24.8 °F 14.6 °F 22.5 °F 91% 29.99 in 1.0 mi WNW 10.4 mph - N/A Snow Light Snow
9:15 AM 24.8 °F 16.9 °F 22.3 °F 90% 29.99 in 0.5 mi WNW 6.9 mph - N/A Snow Snow
9:35 AM 24.4 °F 14.2 °F 22.1 °F 91% 29.98 in 0.5 mi NW 10.4 mph 17.3 mph N/A Snow Snow
9:54 AM 24.6 °F 13.8 °F 22.1 °F 90% 29.98 in 0.5 mi WNW 11.5 mph 16.1 mph N/A Snow Snow
10:15 AM 24.3 °F 15.4 °F 22.1 °F 91% 29.98 in 0.5 mi NNW 8.1 mph - N/A Snow Snow
10:35 AM 22.8 °F 10.9 °F 19.2 °F 86% 29.98 in 1.0 mi NNE 12.7 mph 16.1 mph N/A Snow Light Snow
10:54 AM 19.4 °F 6.0 °F 15.8 °F 86% 29.98 in 1.8 mi NE 13.8 mph - N/A Snow Light Snow
11:15 AM 19.0 °F 6.8 °F 15.6 °F 87% 29.99 in 0.8 mi NNE 11.5 mph 17.3 mph N/A Snow Light Snow
11:35 AM 19.2 °F 6.4 °F 15.3 °F 85% 29.99 in 1.5 mi NE 12.7 mph 16.1 mph N/A Snow Light Snow
11:55 AM 19.2 °F 7.0 °F 14.0 °F 80% 29.99 in 4.0 mi NE 11.5 mph - N/A Snow Light Snow
12:15 PM 19.4 °F 7.9 °F 13.8 °F 79% 29.98 in 4.0 mi ENE 10.4 mph - N/A Snow Light Snow
12:34 PM 19.4 °F 9.5 °F 14.0 °F 80% 29.98 in 3.0 mi NE 8.1 mph - N/A Snow Light Snow
12:55 PM 19.0 °F 10.0 °F 13.5 °F 79% 29.98 in 2.5 mi NNE 6.9 mph - N/A Snow Light Snow
1:15 PM 18.3 °F 7.3 °F 12.9 °F 79% 29.98 in 1.8 mi NNE 9.2 mph - N/A Snow Light Snow
1:34 PM 18.3 °F 8.2 °F 13.1 °F 80% 29.97 in 2.0 mi NNE 8.1 mph - N/A Snow Light Snow
1:55 PM 18.5 °F 10.4 °F 14.0 °F 83% 29.97 in 1.5 mi NE 5.8 mph - N/A Snow Light Snow
2:15 PM 17.6 °F 9.3 °F 13.8 °F 85% 29.97 in 1.2 mi NNE 5.8 mph - N/A Snow Light Snow
2:35 PM 17.6 °F 6.4 °F 14.0 °F 86% 29.98 in 1.2 mi NE 9.2 mph - N/A Snow Light Snow
2:55 PM 16.9 °F 3.4 °F 12.7 °F 84% 29.98 in 1.5 mi NE 12.7 mph - N/A Snow Light Snow
3:14 PM 16.5 °F 4.3 °F 11.3 °F 80% 29.98 in 5.0 mi NE 10.4 mph - N/A Snow Light Snow
3:35 PM 16.5 °F 6.0 °F 12.0 °F 82% 29.99 in 4.0 mi NNE 8.1 mph - N/A Snow Light Snow
3:55 PM 16.5 °F 6.9 °F 10.2 °F 76% 30.00 in 7.0 mi NE 6.9 mph - N/A Snow Light Snow
4:15 PM 16.5 °F 8.1 °F 9.7 °F 74% 30.01 in 10.0 mi ENE 5.8 mph - N/A   Overcast
4:35 PM 16.5 °F 6.9 °F 8.6 °F 71% 30.01 in 10.0 mi NE 6.9 mph - N/A   Overcast
4:54 PM 16.5 °F 9.4 °F 8.4 °F 70% 30.01 in 10.0 mi ENE 4.6 mph - N/A   Overcast
5:15 PM 16.3 °F 7.8 °F 7.7 °F 69% 30.01 in 10.0 mi NE 5.8 mph - N/A   Overcast
5:35 PM 16.3 °F 9.2 °F 7.7 °F 69% 30.02 in 10.0 mi NNE 4.6 mph - N/A   Overcast
5:55 PM 15.8 °F 7.2 °F 7.7 °F 70% 30.02 in 10.0 mi NNE 5.8 mph - N/A   Overcast
6:15 PM 15.6 °F - 7.7 °F 71% 30.02 in 10.0 mi Calm Calm - N/A   Overcast
6:34 PM 15.4 °F 9.8 °F 7.7 °F 71% 30.03 in 10.0 mi NE 3.5 mph - N/A   Overcast
6:55 PM 15.4 °F 8.1 °F 7.9 °F 72% 30.03 in 10.0 mi NE 4.6 mph - N/A   Overcast
7:35 PM 14.7 °F 9.0 °F 7.5 °F 73% 30.03 in 10.0 mi ENE 3.5 mph - N/A   Overcast
7:55 PM 14.0 °F 6.5 °F 6.8 °F 73% 30.04 in 10.0 mi ENE 4.6 mph - N/A   Scattered Clouds
8:14 PM 12.7 °F 5.0 °F 5.9 °F 74% 30.04 in 10.0 mi ENE 4.6 mph - N/A   Clear
8:35 PM 12.9 °F - 5.9 °F 74% 30.05 in 10.0 mi Calm Calm - N/A   Clear
8:55 PM 12.0 °F - 5.7 °F 76% 30.04 in 10.0 mi Calm Calm - N/A   Clear
9:15 PM 9.9 °F 3.4 °F 5.0 °F 81% 30.04 in 10.0 mi East 3.5 mph - N/A   Mostly Cloudy
9:35 PM 11.1 °F 3.1 °F 5.4 °F 78% 30.04 in 10.0 mi ESE 4.6 mph - N/A   Mostly Cloudy
9:54 PM 11.3 °F - 5.4 °F 77% 30.04 in 10.0 mi Calm Calm - N/A   Mostly Cloudy
10:15 PM 11.8 °F - 5.9 °F 77% 30.03 in 10.0 mi Calm Calm - N/A   Overcast
10:35 PM 12.2 °F - 5.9 °F 76% 30.03 in 10.0 mi Calm Calm - N/A   Overcast
10:54 PM 12.0 °F - 6.1 °F 77% 30.02 in 10.0 mi Calm Calm - N/A   Overcast
11:15 PM 12.2 °F 6.1 °F 5.9 °F 76% 30.01 in 10.0 mi East 3.5 mph - N/A   Overcast
11:35 PM 12.2 °F - 5.9 °F 76% 30.01 in 10.0 mi Calm Calm - N/A   Overcast
11:55 PM 12.2 °F - 6.4 °F 78% 30.00 in 10.0 mi Calm Calm - N/A   Overcast